| time (UTC) | temp F | wind direction | speed MPH | gust MPH | rain 1hr in | rain 24hr in | rain mn in | humidity % | barometer mb |
| 20260507040602 | 52 | 0 | 3.0 | 9.0 | 0.01 | 0.23 | 0.00 | 89 | 1006.7 |
| 20260507040101 | 53 | 355 | 3.0 | 8.0 | 0.01 | 0.23 | 0.00 | 82 | 1006.7 |
| 20260507035602 | 53 | 38 | 1.0 | 6.0 | 0.02 | 0.22 | 0.23 | 91 | 1006.3 |
| 20260507035324 | 53 | 355 | 1.0 | 8.0 | 0.03 | 0.22 | 0.23 | 91 | 1006.2 |
| 20260507034826 | 53 | 16 | 4.0 | 8.0 | 0.03 | 0.22 | 0.23 | 91 | 1006.3 |
| 20260507034102 | 54 | 13 | 2.0 | 8.0 | 0.03 | 0.22 | 0.23 | 91 | 1006.3 |
| 20260507032824 | 55 | 0 | 0.0 | 6.0 | 0.02 | 0.22 | 0.22 | 91 | 1006.2 |
| 20260507032327 | 55 | 5 | 2.0 | 7.0 | 0.02 | 0.22 | 0.22 | 91 | 1006.0 |
| 20260507031602 | 55 | 0 | 2.0 | 9.0 | 0.02 | 0.22 | 0.22 | 91 | 1006.0 |
| 20260507031102 | 55 | 320 | 3.0 | 9.0 | 0.02 | 0.22 | 0.22 | 90 | 1005.9 |
| 20260507030602 | 56 | 76 | 2.0 | 6.0 | 0.02 | 0.22 | 0.22 | 91 | 1005.8 |
| 20260507025102 | 57 | 29 | 4.0 | 9.0 | 0.00 | 0.20 | 0.20 | 91 | 1005.8 |
| 20260507024602 | 57 | 11 | 3.0 | 8.0 | 0.00 | 0.20 | 0.20 | 91 | 1005.9 |
| 20260507023602 | 57 | 331 | 2.0 | 7.0 | 0.00 | 0.20 | 0.20 | 92 | 1005.8 |
| 20260507023322 | 58 | 265 | 1.0 | 7.0 | 0.00 | 0.20 | 0.20 | 92 | 1005.6 |
| 20260507022602 | 58 | 355 | 3.0 | 7.0 | 0.00 | 0.20 | 0.20 | 93 | 1005.6 |
| 20260507022101 | 58 | 273 | 3.0 | 7.0 | 0.00 | 0.20 | 0.20 | 93 | 1005.3 |
| 20260507021602 | 58 | 291 | 2.0 | 4.0 | 0.00 | 0.20 | 0.20 | 93 | 1005.2 |
| 20260507021101 | 58 | 5 | 1.0 | 4.0 | 0.00 | 0.20 | 0.20 | 93 | 1005.0 |
| 20260507020823 | 58 | 257 | 2.0 | 4.0 | 0.00 | 0.20 | 0.20 | 93 | 1005.0 |
| 20260507020322 | 58 | 263 | 1.0 | 6.0 | 0.00 | 0.20 | 0.20 | 93 | 1004.9 |
| 20260507015602 | 58 | 265 | 2.0 | 6.0 | 0.00 | 0.20 | 0.20 | 93 | 1005.0 |
| 20260507015325 | 58 | 217 | 1.0 | 5.0 | 0.00 | 0.20 | 0.20 | 93 | 1005.0 |
| 20260507014602 | 58 | 206 | 2.0 | 5.0 | 0.00 | 0.20 | 0.20 | 93 | 1004.9 |
| 20260507014101 | 58 | 267 | 2.0 | 4.0 | 0.00 | 0.20 | 0.20 | 93 | 1004.8 |
| 20260507013825 | 58 | 257 | 2.0 | 4.0 | 0.00 | 0.20 | 0.20 | 93 | 1004.9 |
| 20260507013101 | 58 | 267 | 2.0 | 5.0 | 0.00 | 0.20 | 0.20 | 93 | 1004.9 |
| 20260507012602 | 58 | 224 | 1.0 | 5.0 | 0.00 | 0.20 | 0.20 | 93 | 1004.9 |
| 20260507012102 | 58 | 239 | 2.0 | 5.0 | 0.00 | 0.20 | 0.20 | 93 | 1005.0 |
| 20260507011602 | 58 | 227 | 2.0 | 5.0 | 0.00 | 0.20 | 0.20 | 93 | 1004.9 |
| 20260507011333 | 58 | 254 | 2.0 | 7.0 | 0.00 | 0.20 | 0.20 | 93 | 1004.9 |
| 20260507010601 | 58 | 146 | 1.0 | 7.0 | 0.00 | 0.20 | 0.20 | 93 | 1005.0 |
| 20260507010100 | 58 | 246 | 2.0 | 5.0 | 0.00 | 0.20 | 0.20 | 93 | 1004.8 |
| 20260507005602 | 58 | 226 | 2.0 | 5.0 | 0.00 | 0.20 | 0.20 | 93 | 1005.0 |
| 20260507005325 | 58 | 266 | 1.0 | 5.0 | 0.00 | 0.20 | 0.20 | 93 | 1004.9 |
| 20260507004602 | 58 | 248 | 1.0 | 6.0 | 0.00 | 0.20 | 0.20 | 93 | 1004.9 |
| 20260507004101 | 58 | 229 | 2.0 | 7.0 | 0.00 | 0.20 | 0.20 | 93 | 1005.0 |
| 20260507003602 | 58 | 184 | 2.0 | 7.0 | 0.00 | 0.20 | 0.20 | 93 | 1004.8 |
| 20260507003100 | 58 | 190 | 1.0 | 9.0 | 0.00 | 0.20 | 0.20 | 93 | 1004.6 |
| 20260507002601 | 58 | 222 | 1.0 | 9.0 | 0.00 | 0.20 | 0.20 | 93 | 1004.7 |
| 20260507002100 | 58 | 262 | 2.0 | 7.0 | 0.00 | 0.20 | 0.20 | 93 | 1004.7 |
| 20260507001602 | 58 | 213 | 3.0 | 7.0 | 0.00 | 0.20 | 0.20 | 93 | 1004.8 |
| 20260507001100 | 58 | 256 | 2.0 | 10.0 | 0.00 | 0.20 | 0.20 | 93 | 1004.7 |
| 20260507000834 | 58 | 236 | 4.0 | 10.0 | 0.00 | 0.20 | 0.20 | 93 | 1004.7 |
| 20260506235601 | 58 | 227 | 2.0 | 5.0 | 0.00 | 0.20 | 0.20 | 93 | 1004.6 |
| 20260506235323 | 59 | 249 | 2.0 | 5.0 | 0.00 | 0.20 | 0.20 | 93 | 1004.5 |
| 20260506234602 | 59 | 262 | 2.0 | 7.0 | 0.00 | 0.20 | 0.20 | 93 | 1004.5 |
| 20260506234101 | 59 | 203 | 2.0 | 7.0 | 0.00 | 0.20 | 0.20 | 93 | 1004.4 |
| 20260506233603 | 59 | 262 | 2.0 | 7.0 | 0.00 | 0.20 | 0.20 | 93 | 1004.4 |
| 20260506233102 | 59 | 254 | 2.0 | 5.0 | 0.00 | 0.20 | 0.20 | 93 | 1004.4 |
| 20260506232602 | 59 | 243 | 2.0 | 4.0 | 0.00 | 0.20 | 0.20 | 93 | 1004.5 |
| 20260506232101 | 59 | 258 | 2.0 | 4.0 | 0.00 | 0.20 | 0.20 | 93 | 1004.6 |
| 20260506231603 | 59 | 236 | 2.0 | 5.0 | 0.00 | 0.20 | 0.20 | 93 | 1004.4 |
| 20260506231101 | 59 | 269 | 2.0 | 8.0 | 0.00 | 0.20 | 0.20 | 93 | 1004.6 |
| 20260506230603 | 59 | 242 | 2.0 | 8.0 | 0.00 | 0.20 | 0.20 | 93 | 1004.5 |
| 20260506225824 | 59 | 232 | 3.0 | 9.0 | 0.01 | 0.19 | 0.20 | 93 | 1004.8 |
| 20260506225101 | 59 | 216 | 3.0 | 9.0 | 0.01 | 0.19 | 0.20 | 93 | 1004.8 |
| 20260506224602 | 59 | 218 | 2.0 | 5.0 | 0.01 | 0.19 | 0.20 | 93 | 1004.9 |
| 20260506224323 | 59 | 240 | 1.0 | 5.0 | 0.01 | 0.19 | 0.20 | 93 | 1004.8 |
| 20260506223602 | 59 | 225 | 1.0 | 5.0 | 0.01 | 0.19 | 0.20 | 93 | 1004.8 |
| 20260506223101 | 59 | 229 | 1.0 | 5.0 | 0.01 | 0.19 | 0.20 | 93 | 1004.8 |
| 20260506222602 | 59 | 245 | 1.0 | 5.0 | 0.02 | 0.19 | 0.20 | 93 | 1004.9 |
| 20260506222100 | 59 | 265 | 1.0 | 7.0 | 0.03 | 0.19 | 0.20 | 93 | 1004.9 |
| 20260506221602 | 59 | 192 | 2.0 | 7.0 | 0.03 | 0.19 | 0.20 | 93 | 1005.0 |
| 20260506221101 | 59 | 277 | 1.0 | 5.0 | 0.03 | 0.19 | 0.20 | 93 | 1004.9 |
| 20260506220603 | 59 | 236 | 2.0 | 8.0 | 0.03 | 0.19 | 0.20 | 93 | 1005.0 |
| 20260506220101 | 59 | 217 | 3.0 | 8.0 | 0.04 | 0.19 | 0.19 | 93 | 1005.0 |
| 20260506215602 | 59 | 205 | 2.0 | 7.0 | 0.03 | 0.16 | 0.19 | 93 | 1005.0 |
| 20260506215101 | 59 | 200 | 2.0 | 8.0 | 0.03 | 0.16 | 0.19 | 93 | 1005.0 |
| 20260506214602 | 59 | 186 | 3.0 | 8.0 | 0.03 | 0.16 | 0.19 | 93 | 1005.1 |
| 20260506214101 | 59 | 234 | 3.0 | 7.0 | 0.04 | 0.16 | 0.19 | 93 | 1005.1 |
| 20260506213601 | 60 | 190 | 4.0 | 9.0 | 0.04 | 0.16 | 0.19 | 93 | 1005.1 |
| 20260506213101 | 60 | 257 | 3.0 | 9.0 | 0.04 | 0.16 | 0.18 | 93 | 1005.1 |
| 20260506212825 | 60 | 252 | 4.0 | 11.0 | 0.03 | 0.16 | 0.18 | 93 | 1005.2 |
| 20260506212101 | 60 | 246 | 2.0 | 11.0 | 0.02 | 0.16 | 0.17 | 92 | 1005.3 |
| 20260506211602 | 60 | 175 | 2.0 | 8.0 | 0.02 | 0.16 | 0.17 | 93 | 1005.1 |
| 20260506211101 | 60 | 192 | 3.0 | 9.0 | 0.03 | 0.16 | 0.17 | 93 | 1005.3 |
| 20260506210602 | 60 | 222 | 5.0 | 9.0 | 0.03 | 0.16 | 0.17 | 92 | 1005.4 |
| 20260506210101 | 60 | 204 | 2.0 | 8.0 | 0.02 | 0.16 | 0.16 | 92 | 1005.2 |
| 20260506205602 | 60 | 227 | 4.0 | 10.0 | 0.03 | 0.14 | 0.16 | 92 | 1005.3 |
| 20260506205100 | 61 | 223 | 3.0 | 10.0 | 0.03 | 0.14 | 0.16 | 92 | 1005.5 |
| 20260506204829 | 61 | 233 | 3.0 | 9.0 | 0.03 | 0.14 | 0.16 | 92 | 1005.5 |
| 20260506204326 | 61 | 249 | 3.0 | 9.0 | 0.03 | 0.14 | 0.15 | 92 | 1005.5 |
| 20260506203601 | 61 | 219 | 3.0 | 9.0 | 0.03 | 0.14 | 0.15 | 92 | 1005.5 |
| 20260506203101 | 61 | 225 | 3.0 | 12.0 | 0.03 | 0.14 | 0.15 | 92 | 1005.5 |
| 20260506202601 | 61 | 236 | 4.0 | 12.0 | 0.03 | 0.14 | 0.15 | 92 | 1005.5 |
| 20260506202102 | 61 | 281 | 3.0 | 10.0 | 0.03 | 0.14 | 0.15 | 92 | 1005.5 |
| 20260506201602 | 61 | 240 | 2.0 | 7.0 | 0.03 | 0.14 | 0.15 | 92 | 1005.6 |
| 20260506201101 | 61 | 205 | 2.0 | 8.0 | 0.02 | 0.14 | 0.14 | 92 | 1005.6 |
| 20260506200101 | 61 | 243 | 2.0 | 8.0 | 0.02 | 0.14 | 0.14 | 91 | 1005.7 |
| 20260506195827 | 61 | 226 | 2.0 | 5.0 | 0.01 | 0.12 | 0.13 | 91 | 1005.8 |
| 20260506194602 | 61 | 184 | 2.0 | 7.0 | 0.01 | 0.12 | 0.13 | 91 | 1005.9 |
| 20260506194101 | 61 | 255 | 2.0 | 7.0 | 0.01 | 0.12 | 0.12 | 91 | 1005.8 |
| 20260506193102 | 61 | 262 | 2.0 | 10.0 | 0.02 | 0.12 | 0.12 | 91 | 1005.7 |
| 20260506192602 | 61 | 224 | 3.0 | 10.0 | 0.03 | 0.12 | 0.12 | 91 | 1005.7 |
| 20260506192326 | 62 | 274 | 2.0 | 9.0 | 0.03 | 0.12 | 0.12 | 91 | 1005.6 |
| 20260506191603 | 62 | 229 | 3.0 | 9.0 | 0.04 | 0.12 | 0.12 | 90 | 1005.6 |
| 20260506191101 | 62 | 205 | 2.0 | 7.0 | 0.06 | 0.12 | 0.12 | 90 | 1005.5 |
| 20260506190827 | 62 | 225 | 1.0 | 5.0 | 0.07 | 0.12 | 0.12 | 90 | 1005.6 |
| 20260506190101 | 62 | 212 | 2.0 | 5.0 | 0.08 | 0.12 | 0.12 | 90 | 1005.8 |
| 20260506185602 | 62 | 209 | 1.0 | 3.0 | 0.09 | 0.04 | 0.12 | 90 | 1005.9 |
| 20260506185100 | 62 | 234 | 0.0 | 3.0 | 0.09 | 0.04 | 0.12 | 89 | 1005.9 |
| 20260506184603 | 62 | 221 | 2.0 | 7.0 | 0.10 | 0.04 | 0.11 | 89 | 1005.9 |
| 20260506184100 | 62 | 240 | 2.0 | 7.0 | 0.10 | 0.04 | 0.11 | 89 | 1006.0 |
| 20260506183828 | 62 | 228 | 1.0 | 4.0 | 0.09 | 0.04 | 0.10 | 88 | 1006.3 |
| 20260506183102 | 62 | 253 | 2.0 | 4.0 | 0.10 | 0.04 | 0.10 | 88 | 1006.3 |
| 20260506182601 | 62 | 243 | 2.0 | 7.0 | 0.09 | 0.04 | 0.09 | 87 | 1006.4 |
| 20260506182326 | 62 | 275 | 2.0 | 7.0 | 0.09 | 0.04 | 0.08 | 86 | 1006.5 |
| 20260506181602 | 63 | 259 | 1.0 | 4.0 | 0.08 | 0.04 | 0.07 | 85 | 1006.6 |
| 20260506181321 | 63 | 265 | 1.0 | 4.0 | 0.06 | 0.04 | 0.06 | 84 | 1006.6 |
| 20260506180602 | 64 | 261 | 1.0 | 4.0 | 0.05 | 0.04 | 0.05 | 83 | 1006.6 |
| 20260506180321 | 64 | 265 | 2.0 | 7.0 | 0.04 | 0.04 | 0.04 | 82 | 1006.6 |
| 20260506175602 | 64 | 266 | 3.0 | 7.0 | 0.03 | 0.00 | 0.03 | 80 | 1006.7 |
| 20260506175100 | 65 | 259 | 0.0 | 5.0 | 0.03 | 0.00 | 0.03 | 80 | 1006.8 |
| 20260506174602 | 66 | 253 | 1.0 | 3.0 | 0.02 | 0.00 | 0.02 | 78 | 1006.7 |
| 20260506174100 | 66 | 257 | 1.0 | 4.0 | 0.01 | 0.00 | 0.01 | 75 | 1006.8 |
| 20260506173602 | 67 | 227 | 2.0 | 7.0 | 0.01 | 0.00 | 0.01 | 72 | 1006.8 |
| 20260506173101 | 68 | 257 | 2.0 | 7.0 | 0.00 | 0.00 | 0.00 | 70 | 1006.6 |
| 20260506172602 | 69 | 210 | 2.0 | 7.0 | 0.00 | 0.00 | 0.00 | 59 | 1006.3 |
| 20260506172101 | 69 | 182 | 3.0 | 7.0 | 0.00 | 0.00 | 0.00 | 63 | 1006.2 |
| 20260506171602 | 70 | 251 | 2.0 | 7.0 | 0.00 | 0.00 | 0.00 | 62 | 1006.0 |
| 20260506171319 | 70 | 126 | 3.0 | 7.0 | 0.00 | 0.00 | 0.00 | 62 | 1006.2 |
| 20260506170602 | 70 | 259 | 2.0 | 8.0 | 0.00 | 0.00 | 0.00 | 62 | 1006.2 |
| 20260506170100 | 70 | 261 | 3.0 | 9.0 | 0.00 | 0.00 | 0.00 | 63 | 1006.2 |
| 20260506165825 | 70 | 205 | 4.0 | 9.0 | 0.00 | 0.00 | 0.00 | 62 | 1006.3 |
| 20260506165101 | 70 | 233 | 4.0 | 8.0 | 0.00 | 0.00 | 0.00 | 55 | 1006.3 |
| 20260506164603 | 70 | 229 | 4.0 | 7.0 | 0.00 | 0.00 | 0.00 | 62 | 1006.4 |
| 20260506164102 | 71 | 257 | 3.0 | 9.0 | 0.00 | 0.00 | 0.00 | 63 | 1006.4 |
| 20260506163602 | 70 | 267 | 4.0 | 10.0 | 0.00 | 0.00 | 0.00 | 62 | 1006.4 |
| 20260506162824 | 70 | 306 | 3.0 | 7.0 | 0.00 | 0.00 | 0.00 | 63 | 1006.6 |
| 20260506162101 | 70 | 271 | 4.0 | 8.0 | 0.00 | 0.00 | 0.00 | 63 | 1006.8 |
| 20260506161603 | 70 | 208 | 3.0 | 8.0 | 0.00 | 0.00 | 0.00 | 56 | 1006.8 |
| 20260506161327 | 70 | 207 | 3.0 | 7.0 | 0.00 | 0.00 | 0.00 | 63 | 1006.9 |
| 20260506160601 | 70 | 196 | 2.0 | 7.0 | 0.00 | 0.00 | 0.00 | 65 | 1007.0 |
| 20260506155602 | 69 | 220 | 4.0 | 13.0 | 0.00 | 0.00 | 0.00 | 65 | 1007.4 |
| 20260506155325 | 69 | 188 | 3.0 | 7.0 | 0.00 | 0.00 | 0.00 | 66 | 1007.5 |
| 20260506154602 | 69 | 186 | 2.0 | 7.0 | 0.00 | 0.00 | 0.00 | 66 | 1007.7 |
| 20260506154101 | 69 | 186 | 1.0 | 9.0 | 0.00 | 0.00 | 0.00 | 67 | 1007.7 |
| 20260506153602 | 69 | 265 | 3.0 | 9.0 | 0.00 | 0.00 | 0.00 | 67 | 1007.8 |
| 20260506153101 | 69 | 202 | 3.0 | 8.0 | 0.00 | 0.00 | 0.00 | 66 | 1007.8 |
| 20260506152602 | 69 | 199 | 2.0 | 7.0 | 0.00 | 0.00 | 0.00 | 67 | 1007.9 |
| 20260506152330 | 69 | 126 | 2.0 | 7.0 | 0.00 | 0.00 | 0.00 | 66 | 1008.0 |
| 20260506151602 | 69 | 305 | 1.0 | 8.0 | 0.00 | 0.00 | 0.00 | 59 | 1008.0 |
| 20260506151101 | 69 | 143 | 4.0 | 8.0 | 0.00 | 0.00 | 0.00 | 67 | 1008.0 |
| 20260506150602 | 68 | 200 | 2.0 | 7.0 | 0.00 | 0.00 | 0.00 | 68 | 1008.2 |
| 20260506150100 | 68 | 166 | 2.0 | 10.0 | 0.00 | 0.00 | 0.00 | 68 | 1007.9 |
| 20260506145602 | 68 | 170 | 4.0 | 10.0 | 0.00 | 0.00 | 0.00 | 68 | 1007.9 |
| 20260506145101 | 68 | 186 | 2.0 | 7.0 | 0.00 | 0.00 | 0.00 | 60 | 1007.9 |
| 20260506144602 | 68 | 244 | 2.0 | 6.0 | 0.00 | 0.00 | 0.00 | 70 | 1008.1 |
| 20260506144101 | 68 | 272 | 1.0 | 7.0 | 0.00 | 0.00 | 0.00 | 70 | 1008.0 |
| 20260506143602 | 67 | 226 | 4.0 | 7.0 | 0.00 | 0.00 | 0.00 | 69 | 1008.0 |
| 20260506143100 | 67 | 261 | 2.0 | 8.0 | 0.00 | 0.00 | 0.00 | 70 | 1007.9 |
| 20260506142602 | 67 | 276 | 2.0 | 10.0 | 0.00 | 0.00 | 0.00 | 71 | 1007.9 |
| 20260506142100 | 67 | 228 | 3.0 | 10.0 | 0.00 | 0.00 | 0.00 | 70 | 1007.9 |
| 20260506141602 | 67 | 259 | 3.0 | 8.0 | 0.00 | 0.00 | 0.00 | 70 | 1007.9 |
| 20260506141101 | 67 | 205 | 2.0 | 7.0 | 0.00 | 0.00 | 0.00 | 70 | 1007.9 |
| 20260506140828 | 66 | 215 | 4.0 | 7.0 | 0.00 | 0.00 | 0.00 | 71 | 1007.7 |
| 20260506140101 | 66 | 234 | 3.0 | 7.0 | 0.00 | 0.00 | 0.00 | 71 | 1007.5 |
| 20260506135601 | 66 | 139 | 2.0 | 7.0 | 0.00 | 0.00 | 0.00 | 72 | 1007.6 |
| 20260506135101 | 66 | 126 | 3.0 | 7.0 | 0.00 | 0.00 | 0.00 | 73 | 1007.7 |
| 20260506134601 | 65 | 273 | 3.0 | 7.0 | 0.00 | 0.00 | 0.00 | 73 | 1007.8 |
| 20260506134101 | 65 | 252 | 2.0 | 7.0 | 0.00 | 0.00 | 0.00 | 74 | 1007.8 |
| 20260506133822 | 65 | 229 | 2.0 | 8.0 | 0.00 | 0.00 | 0.00 | 74 | 1008.0 |
| 20260506133100 | 65 | 260 | 3.0 | 9.0 | 0.00 | 0.00 | 0.00 | 74 | 1007.9 |
| 20260506132602 | 64 | 263 | 4.0 | 11.0 | 0.00 | 0.00 | 0.00 | 73 | 1008.0 |
| 20260506132101 | 64 | 263 | 5.0 | 11.0 | 0.00 | 0.00 | 0.00 | 73 | 1008.1 |
| 20260506131603 | 64 | 211 | 3.0 | 8.0 | 0.00 | 0.00 | 0.00 | 74 | 1008.1 |
| 20260506131323 | 64 | 259 | 2.0 | 8.0 | 0.00 | 0.00 | 0.00 | 75 | 1008.2 |
| 20260506130825 | 64 | 226 | 2.0 | 8.0 | 0.00 | 0.00 | 0.00 | 75 | 1008.2 |
| 20260506125824 | 64 | 202 | 2.0 | 8.0 | 0.00 | 0.00 | 0.00 | 75 | 1008.1 |
| 20260506125101 | 64 | 212 | 2.0 | 8.0 | 0.00 | 0.00 | 0.00 | 75 | 1008.2 |
| 20260506124826 | 64 | 187 | 3.0 | 11.0 | 0.00 | 0.00 | 0.00 | 75 | 1008.2 |
| 20260506124102 | 64 | 240 | 5.0 | 11.0 | 0.00 | 0.00 | 0.00 | 75 | 1008.2 |
| 20260506123602 | 63 | 280 | 1.0 | 9.0 | 0.00 | 0.00 | 0.00 | 76 | 1008.3 |
| 20260506123100 | 63 | 230 | 4.0 | 9.0 | 0.00 | 0.00 | 0.00 | 76 | 1008.2 |
| 20260506122603 | 62 | 188 | 2.0 | 7.0 | 0.00 | 0.00 | 0.00 | 77 | 1008.1 |
| 20260506122101 | 62 | 180 | 2.0 | 6.0 | 0.00 | 0.00 | 0.00 | 77 | 1008.1 |
| 20260506121603 | 62 | 238 | 2.0 | 9.0 | 0.00 | 0.00 | 0.00 | 77 | 1008.2 |
| 20260506121101 | 62 | 266 | 2.0 | 9.0 | 0.00 | 0.00 | 0.00 | 77 | 1008.3 |
| 20260506120602 | 62 | 199 | 3.0 | 7.0 | 0.00 | 0.00 | 0.00 | 77 | 1008.4 |
| 20260506120329 | 62 | 225 | 2.0 | 5.0 | 0.00 | 0.00 | 0.00 | 78 | 1008.4 |
| 20260506115602 | 62 | 265 | 2.0 | 6.0 | 0.00 | 0.00 | 0.00 | 78 | 1008.4 |
| 20260506115101 | 61 | 219 | 2.0 | 6.0 | 0.00 | 0.00 | 0.00 | 78 | 1008.5 |
| 20260506114602 | 61 | 202 | 3.0 | 6.0 | 0.00 | 0.00 | 0.00 | 78 | 1008.6 |
| 20260506114330 | 61 | 254 | 3.0 | 6.0 | 0.00 | 0.00 | 0.00 | 78 | 1008.7 |
| 20260506113826 | 61 | 205 | 2.0 | 6.0 | 0.00 | 0.00 | 0.00 | 78 | 1008.6 |
| 20260506113101 | 61 | 260 | 2.0 | 8.0 | 0.00 | 0.00 | 0.00 | 78 | 1008.7 |
| 20260506112601 | 61 | 246 | 2.0 | 8.0 | 0.00 | 0.00 | 0.00 | 78 | 1008.6 |
| 20260506111601 | 60 | 252 | 1.0 | 13.0 | 0.00 | 0.00 | 0.00 | 79 | 1008.8 |
| 20260506110601 | 60 | 237 | 2.0 | 7.0 | 0.00 | 0.00 | 0.00 | 78 | 1008.8 |
| 20260506110101 | 60 | 200 | 2.0 | 8.0 | 0.00 | 0.00 | 0.00 | 79 | 1008.7 |
| 20260506105602 | 60 | 196 | 2.0 | 8.0 | 0.00 | 0.00 | 0.00 | 79 | 1008.7 |
| 20260506105102 | 60 | 185 | 1.0 | 6.0 | 0.00 | 0.00 | 0.00 | 79 | 1008.7 |
| 20260506104602 | 59 | 225 | 2.0 | 6.0 | 0.00 | 0.00 | 0.00 | 79 | 1008.7 |
| 20260506104101 | 59 | 257 | 2.0 | 7.0 | 0.00 | 0.00 | 0.00 | 79 | 1008.6 |
| 20260506103329 | 59 | 238 | 2.0 | 7.0 | 0.00 | 0.00 | 0.00 | 79 | 1008.7 |
| 20260506102601 | 59 | 254 | 1.0 | 7.0 | 0.00 | 0.00 | 0.00 | 79 | 1008.7 |
| 20260506102100 | 59 | 232 | 2.0 | 6.0 | 0.00 | 0.00 | 0.00 | 79 | 1008.5 |
| 20260506101824 | 59 | 223 | 2.0 | 5.0 | 0.00 | 0.00 | 0.00 | 79 | 1008.6 |
| 20260506100829 | 59 | 260 | 2.0 | 7.0 | 0.00 | 0.00 | 0.00 | 78 | 1008.7 |
| 20260506100323 | 59 | 267 | 2.0 | 7.0 | 0.00 | 0.00 | 0.00 | 78 | 1008.5 |
| 20260506095601 | 59 | 192 | 1.0 | 8.0 | 0.00 | 0.00 | 0.00 | 78 | 1008.6 |
| 20260506095327 | 59 | 239 | 1.0 | 8.0 | 0.00 | 0.00 | 0.00 | 78 | 1008.7 |
| 20260506094602 | 59 | 242 | 3.0 | 5.0 | 0.00 | 0.00 | 0.00 | 78 | 1008.6 |
| 20260506094101 | 59 | 233 | 2.0 | 5.0 | 0.00 | 0.00 | 0.00 | 78 | 1008.6 |
| 20260506093824 | 59 | 160 | 2.0 | 5.0 | 0.00 | 0.00 | 0.00 | 78 | 1008.7 |
| 20260506093102 | 59 | 230 | 2.0 | 4.0 | 0.00 | 0.00 | 0.00 | 78 | 1008.7 |
| 20260506092602 | 59 | 259 | 1.0 | 4.0 | 0.00 | 0.00 | 0.00 | 77 | 1008.4 |
| 20260506092101 | 60 | 204 | 1.0 | 4.0 | 0.00 | 0.00 | 0.00 | 77 | 1008.7 |
| 20260506091602 | 60 | 240 | 1.0 | 5.0 | 0.00 | 0.00 | 0.00 | 77 | 1008.8 |
| 20260506091330 | 60 | 181 | 1.0 | 5.0 | 0.00 | 0.00 | 0.00 | 77 | 1008.7 |
| 20260506090602 | 60 | 249 | 2.0 | 5.0 | 0.00 | 0.00 | 0.00 | 76 | 1008.6 |
| 20260506085822 | 60 | 211 | 2.0 | 5.0 | 0.00 | 0.00 | 0.00 | 76 | 1008.7 |
| 20260506085101 | 60 | 221 | 2.0 | 5.0 | 0.00 | 0.00 | 0.00 | 76 | 1008.6 |
| 20260506084602 | 60 | 252 | 1.0 | 4.0 | 0.00 | 0.00 | 0.00 | 76 | 1008.6 |
| 20260506084322 | 60 | 257 | 1.0 | 4.0 | 0.00 | 0.00 | 0.00 | 75 | 1008.8 |
| 20260506083602 | 60 | 215 | 1.0 | 7.0 | 0.00 | 0.00 | 0.00 | 75 | 1008.6 |
| 20260506083101 | 60 | 226 | 2.0 | 7.0 | 0.00 | 0.00 | 0.00 | 75 | 1008.7 |
| 20260506082602 | 60 | 224 | 2.0 | 5.0 | 0.00 | 0.00 | 0.00 | 75 | 1008.7 |
| 20260506082101 | 60 | 238 | 1.0 | 4.0 | 0.00 | 0.00 | 0.00 | 74 | 1008.6 |
| 20260506081603 | 60 | 250 | 1.0 | 4.0 | 0.00 | 0.00 | 0.00 | 74 | 1008.6 |
| 20260506081102 | 60 | 226 | 1.0 | 7.0 | 0.00 | 0.00 | 0.00 | 74 | 1008.6 |
| 20260506080604 | 60 | 174 | 1.0 | 7.0 | 0.00 | 0.00 | 0.00 | 73 | 1008.5 |
| 20260506073100 | 61 | 199 | 1.0 | 4.0 | 0.00 | 0.00 | 0.00 | 71 | 1008.6 |
| 20260506072602 | 61 | 193 | 1.0 | 5.0 | 0.00 | 0.00 | 0.00 | 71 | 1008.5 |
| 20260506072100 | 61 | 226 | 1.0 | 6.0 | 0.00 | 0.00 | 0.00 | 71 | 1008.5 |
| 20260506071603 | 61 | 177 | 2.0 | 6.0 | 0.00 | 0.00 | 0.00 | 70 | 1008.3 |
| 20260506071101 | 61 | 199 | 2.0 | 6.0 | 0.00 | 0.00 | 0.00 | 70 | 1008.3 |
| 20260506070601 | 61 | 202 | 2.0 | 6.0 | 0.00 | 0.00 | 0.00 | 70 | 1008.2 |
| 20260506061602 | 61 | 242 | 1.0 | 4.0 | 0.00 | 0.00 | 0.00 | 68 | 1008.1 |
| 20260506061101 | 62 | 208 | 2.0 | 4.0 | 0.00 | 0.00 | 0.00 | 68 | 1008.2 |
| 20260506060602 | 62 | 216 | 1.0 | 4.0 | 0.00 | 0.00 | 0.00 | 68 | 1008.2 |
| 20260506051325 | 62 | 200 | 0.0 | 3.0 | 0.00 | 0.00 | 0.00 | 65 | 1008.4 |
| 20260506050602 | 62 | 198 | 0.0 | 5.0 | 0.00 | 0.00 | 0.00 | 65 | 1008.3 |
| 20260506050326 | 63 | 202 | 2.0 | 6.0 | 0.00 | 0.00 | 0.00 | 65 | 1008.4 |
| 20260506045101 | 63 | 178 | 1.0 | 6.0 | 0.00 | 0.00 | 0.00 | 64 | 1008.4 |
| 20260506044331 | 63 | 252 | 1.0 | 6.0 | 0.00 | 0.00 | 0.00 | 64 | 1008.5 |
| 20260506043602 | 63 | 245 | 2.0 | 7.0 | 0.00 | 0.00 | 0.00 | 64 | 1008.5 |
| 20260506043101 | 63 | 186 | 1.0 | 7.0 | 0.00 | 0.00 | 0.00 | 63 | 1008.5 |
| 20260506042603 | 64 | 201 | 3.0 | 7.0 | 0.00 | 0.00 | 0.00 | 63 | 1008.5 |
| 20260506042101 | 64 | 246 | 3.0 | 7.0 | 0.00 | 0.00 | 0.00 | 63 | 1008.4 |
| 20260506041601 | 64 | 246 | 2.0 | 8.0 | 0.00 | 0.00 | 0.00 | 63 | 1008.5 |
| 20260506041101 | 64 | 167 | 2.0 | 8.0 | 0.00 | 0.00 | 0.00 | 63 | 1008.4 |